Branson, MO

7:54 AM CDT on June 28, 2017 (GMT -0500)
Branson

Weather History for KBBG - December, 2012

Change the Weather History Date:

Monday, December 3, 2012

  Actual Average (KHRO) Record (KHRO)
Temperature  
Mean Temperature 66 °F -  
Max Temperature 73 °F 52 °F 79 °F (1956)
Min Temperature 59 °F 33 °F 8 °F (1929)
Cooling Degree Days 1    
Growing Degree Days 16 (Base 50)    
Moisture  
Dew Point 55 °F    
Average Humidity 72    
Maximum Humidity 94    
Minimum Humidity 44    
Precipitation  
Precipitation 0.00 in - - ()
Sea Level Pressure  
Sea Level Pressure 29.98 in    
Wind  
Wind Speed 9 mph (South)    
Max Wind Speed 22 mph    
Max Gust Speed 33 mph    
Visibility 10 miles    
Events      
Averages and records for this station are not official NWS values.
T = Trace of Precipitation, MM = Missing Value Source: NWS Daily Summary

Daily Weather History Graph

Daily Weather History Graph

Search for Another Location

Airport or City:

Trip Planner

Search our weather history database for the weather conditions in past years. The results will help you decide how hot, cold, wet, or windy it might be!

Date:

Astronomy

Dec. 03, 2012 Rise Set
Actual Time 7:08 AM CST 4:57 PM CST
Civil Twilight 6:40 AM CST 5:25 PM CST
Nautical Twilight 6:07 AM CST 5:57 PM CST
Astronomical Twilight 5:36 AM CST 6:28 PM CST
Moon 9:40 PM CST (12/3) 10:35 AM CST (12/3)
Length of Visible Light 10h 45m
Length of Day
9h 48m
Waning Gibbous, 78% of the Moon is Illuminated
Dec 3
Waning Gibbous
Dec 6
Last Quarter
Dec 13
New
Dec 19
First Quarter
Dec 28
Full

Hourly Weather History & Observations

Time (CST) Temp. Dew Point Humidity Pressure Visibility Wind Dir Wind Speed Gust Speed Precip Events Conditions
12:15 AM 64.4 °F 57.2 °F 77% 30.01 in 10.0 mi South 8.1 mph - N/A   Clear
12:35 AM 64.4 °F 57.2 °F 77% 30.01 in 10.0 mi South 6.9 mph - N/A   Clear
12:55 AM 64.4 °F 57.2 °F 77% 30.01 in 10.0 mi South 5.8 mph - N/A   Clear
1:15 AM 64.4 °F 57.2 °F 77% 30.00 in 10.0 mi South 5.8 mph - N/A   Partly Cloudy
1:35 AM 64.4 °F 57.2 °F 77% 30.00 in 10.0 mi South 5.8 mph - N/A   Clear
1:55 AM 64.4 °F 57.2 °F 77% 30.00 in 10.0 mi South 6.9 mph - N/A   Clear
2:15 AM 64.4 °F 57.2 °F 77% 30.01 in 10.0 mi South 8.1 mph - N/A   Clear
2:35 AM 64.4 °F 57.2 °F 77% 30.01 in 10.0 mi SSE 6.9 mph - N/A   Clear
2:55 AM 62.6 °F 57.2 °F 82% 30.00 in 10.0 mi South 8.1 mph - N/A   Clear
3:15 AM 64.4 °F 57.2 °F 77% 30.00 in 10.0 mi South 9.2 mph - N/A   Clear
3:35 AM 64.4 °F 57.2 °F 77% 30.00 in 10.0 mi South 8.1 mph 17.3 mph N/A   Clear
3:55 AM 64.4 °F 57.2 °F 77% 30.00 in 10.0 mi South 8.1 mph - N/A   Clear
4:15 AM 62.6 °F 57.2 °F 82% 29.99 in 10.0 mi SSE 6.9 mph - N/A   Clear
4:35 AM 62.6 °F 57.2 °F 82% 29.99 in 10.0 mi SSE 8.1 mph - N/A   Clear
4:55 AM 62.6 °F 57.2 °F 82% 29.99 in 10.0 mi SSE 8.1 mph - N/A   Clear
5:15 AM 60.8 °F 57.2 °F 88% 29.98 in 10.0 mi SE 8.1 mph - N/A   Clear
5:35 AM 59.0 °F 57.2 °F 94% 29.98 in 10.0 mi SSE 9.2 mph - N/A   Clear
6:48 AM 60.8 °F 57.2 °F 88% 29.97 in 10.0 mi South 13.8 mph - N/A   Scattered Clouds
7:47 AM 62.6 °F 57.2 °F 82% 29.97 in 10.0 mi SSE 12.7 mph 19.6 mph N/A   Scattered Clouds
9:48 AM 66.2 °F 55.4 °F 68% 30.00 in 10.0 mi South 17.3 mph 25.3 mph N/A   Mostly Cloudy
10:47 AM 68.0 °F 53.6 °F 60% 30.00 in 10.0 mi South 15.0 mph 25.3 mph N/A   Mostly Cloudy
11:50 AM 71.6 °F 51.8 °F 50% 29.96 in 10.0 mi South 20.7 mph 29.9 mph N/A   Scattered Clouds
12:46 PM 73.4 °F 50.0 °F 44% 29.94 in 10.0 mi South 21.9 mph 33.4 mph N/A   Partly Cloudy
1:50 PM 73.4 °F 50.0 °F 44% 29.91 in 10.0 mi South 19.6 mph 29.9 mph N/A   Partly Cloudy
2:56 PM 73.4 °F 50.0 °F 44% 29.90 in 10.0 mi South 13.8 mph 20.7 mph N/A   Partly Cloudy
3:45 PM 73.4 °F 50.0 °F 44% 29.90 in 10.0 mi South 13.8 mph 21.9 mph N/A   Partly Cloudy
4:45 PM 69.8 °F 51.8 °F 53% 29.91 in 10.0 mi SSE 11.5 mph - N/A   Partly Cloudy
5:45 PM 66.2 °F 53.6 °F 64% 29.93 in 10.0 mi SSE 10.4 mph - N/A   Partly Cloudy
6:45 PM 66.2 °F 53.6 °F 64% 29.96 in 10.0 mi SSE 9.2 mph - N/A   Scattered Clouds
7:45 PM 66.2 °F 53.6 °F 64% 29.99 in 10.0 mi South 6.9 mph - N/A   Mostly Cloudy
8:15 PM 66.2 °F 55.4 °F 68% 29.99 in 10.0 mi Calm Calm - N/A   Overcast
8:35 PM 64.4 °F 55.4 °F 73% 29.99 in 10.0 mi SSE 8.1 mph - N/A   Overcast
8:45 PM 64.4 °F 55.4 °F 73% 29.99 in 10.0 mi South 6.9 mph - N/A   Mostly Cloudy
8:55 PM 64.4 °F 55.4 °F 73% 29.98 in 10.0 mi SSE 6.9 mph - N/A   Scattered Clouds
9:15 PM 64.4 °F 55.4 °F 73% 29.98 in 10.0 mi SSE 8.1 mph - N/A   Clear
9:35 PM 64.4 °F 55.4 °F 73% 29.98 in 10.0 mi South 6.9 mph - N/A   Clear
9:55 PM 64.4 °F 55.4 °F 73% 29.97 in 10.0 mi South 9.2 mph - N/A   Clear
10:15 PM 64.4 °F 55.4 °F 73% 29.97 in 10.0 mi South 8.1 mph - N/A   Clear
10:35 PM 64.4 °F 57.2 °F 77% 29.97 in 10.0 mi South 8.1 mph - N/A   Clear
10:55 PM 64.4 °F 55.4 °F 73% 29.97 in 10.0 mi South 6.9 mph - N/A   Partly Cloudy
11:15 PM 64.4 °F 55.4 °F 73% 29.98 in 10.0 mi South 6.9 mph - N/A   Clear
11:35 PM 62.6 °F 55.4 °F 77% 29.98 in 10.0 mi South 5.8 mph - N/A   Clear
11:55 PM 62.6 °F 55.4 °F 77% 29.98 in 10.0 mi South 5.8 mph - N/A   Clear